DW4725 Weather Reports


Display with metric or nautical units.
time (UTC)temp
F
wind
direction
speed
MPH
gust
MPH
rain 1hr
in
rain 24hr
in
rain mn
in
humidity
%
barometer
mb
20260903082040 67 270 0.0 4.0 0.00 0.00 0.00 71 1025.4
20260903081836 67 244 1.0 4.0 0.00 0.00 0.00 71 1025.4
20260903081636 67 241 0.0 3.0 0.00 0.00 0.00 69 1025.4
20260903081428 67 236 0.0 3.0 0.00 0.00 0.00 69 1025.4
20260903081228 67 235 0.0 3.0 0.00 0.00 0.00 71 1025.3
20260903081027 67 239 0.0 4.0 0.00 0.00 0.00 71 1025.3
20260903080819 67 264 0.0 4.0 0.00 0.00 0.00 73 1025.2
20260903080620 67 265 0.0 4.0 0.00 0.00 0.00 72 1025.3
20260903080413 67 281 1.0 4.0 0.00 0.00 0.00 70 1025.2
20260903080208 67 227 1.0 4.0 0.00 0.00 0.00 72 1025.2
20260903075643 67 240 1.0 4.0 0.00 0.00 0.00 70 1025.1
20260903075444 67 224 1.0 4.0 0.00 0.00 0.00 70 1025.2
20260903075240 67 231 1.0 4.0 0.00 0.00 0.00 71 1025.1
20260903074717 67 253 0.0 3.0 0.00 0.00 0.00 73 1025.2
20260903074510 67 233 0.0 3.0 0.00 0.00 0.00 72 1025.2
20260903074309 67 274 0.0 3.0 0.00 0.00 0.00 71 1025.1
20260903074110 67 236 0.0 3.0 0.00 0.00 0.00 72 1025.2
20260903073901 67 259 0.0 3.0 0.00 0.00 0.00 72 1025.1
20260903073654 67 242 0.0 5.0 0.00 0.00 0.00 73 1025.2
20260903073452 66 240 0.0 5.0 0.00 0.00 0.00 73 1025.2
20260903072934 66 239 0.0 5.0 0.00 0.00 0.00 72 1025.1
20260903072413 66 232 1.0 5.0 0.00 0.00 0.00 73 1025.1
20260903072211 66 236 1.0 5.0 0.00 0.00 0.00 73 1025.0
20260903071648 66 231 1.0 4.0 0.00 0.00 0.00 73 1025.1
20260903071448 66 210 0.0 4.0 0.00 0.00 0.00 72 1025.1
20260903070933 66 234 0.0 3.0 0.00 0.00 0.00 72 1025.1
20260903070415 66 244 0.0 0.0 0.00 0.00 0.00 76 1025.0
20260903070207 66 244 0.0 1.0 0.00 0.00 0.00 75 1025.2
20260903070007 66 244 0.0 1.0 0.00 0.00 0.00 74 1025.3
20260903065759 66 243 0.0 1.0 0.00 0.00 0.00 75 1025.4
20260903065559 66 231 0.0 1.0 0.00 0.00 0.00 75 1025.4
20260903065356 66 238 0.0 1.0 0.00 0.00 0.00 73 1025.3
20260903065150 66 237 0.0 1.0 0.00 0.00 0.00 74 1025.3
20260903064950 66 237 0.0 1.0 0.00 0.00 0.00 74 1025.3
20260903064414 66 188 0.0 0.0 0.00 0.00 0.00 74 1025.4
20260903064210 66 99 0.0 0.0 0.00 0.00 0.00 74 1025.3
20260903064008 66 89 0.0 0.0 0.00 0.00 0.00 76 1025.3
20260903062759 65 117 0.0 3.0 0.00 0.00 0.00 75 1025.1
20260903062552 65 134 0.0 2.0 0.00 0.00 0.00 75 1025.2
20260903062345 65 115 0.0 2.0 0.00 0.00 0.00 74 1025.2
20260903062138 65 120 0.0 1.0 0.00 0.00 0.00 75 1025.1
20260903061936 65 224 0.0 0.0 0.00 0.00 0.00 75 1025.1
20260903061728 64 233 0.0 0.0 0.00 0.00 0.00 75 1025.1
20260903061527 64 233 0.0 0.0 0.00 0.00 0.00 74 1025.0
20260903061316 64 233 0.0 0.0 0.00 0.00 0.00 75 1025.0
20260903061107 64 233 0.0 0.0 0.00 0.00 0.00 75 1025.0
20260903060906 64 233 0.0 0.0 0.00 0.00 0.00 75 1025.0
20260903060702 64 233 0.0 0.0 0.00 0.00 0.00 75 1024.8
20260903060452 63 233 0.0 0.0 0.00 0.00 0.00 75 1024.8
20260903060249 63 233 0.0 0.0 0.00 0.00 0.00 75 1024.7
20260903060050 63 233 0.0 0.0 0.00 0.00 0.00 75 1024.7
20260903055847 63 224 0.0 1.0 0.00 0.00 0.00 75 1024.7
20260903055637 63 219 0.0 1.0 0.00 0.00 0.00 76 1024.6
20260903055431 63 218 0.0 1.0 0.00 0.00 0.00 76 1024.7
20260903055220 63 225 0.0 1.0 0.00 0.00 0.00 76 1024.7
20260903055010 63 151 0.0 0.0 0.00 0.00 0.00 76 1024.7
20260903054803 63 151 0.0 0.0 0.00 0.00 0.00 76 1024.8
20260903054555 63 109 0.0 0.0 0.00 0.00 0.00 76 1024.9
20260903054349 62 108 0.0 0.0 0.00 0.00 0.00 76 1024.8
20260903054139 62 109 0.0 0.0 0.00 0.00 0.00 75 1024.8
20260903053936 62 108 0.0 0.0 0.00 0.00 0.00 76 1024.7
20260903053729 62 109 0.0 0.0 0.00 0.00 0.00 75 1024.6
20260903053210 62 109 0.0 0.0 0.00 0.00 0.00 75 1024.6
20260903053006 62 108 0.0 0.0 0.00 0.00 0.00 75 1024.6
20260903052803 62 108 0.0 0.0 0.00 0.00 0.00 75 1024.7
20260903052601 62 108 0.0 0.0 0.00 0.00 0.00 75 1024.6
20260903052353 62 109 0.0 0.0 0.00 0.00 0.00 76 1024.5
20260903052151 61 108 0.0 0.0 0.00 0.00 0.00 76 1024.5
20260903051942 61 108 0.0 0.0 0.00 0.00 0.00 76 1024.4
20260903051735 61 113 0.0 4.0 0.00 0.00 0.00 77 1024.3
20260903051528 61 113 1.0 4.0 0.00 0.00 0.00 77 1024.4
20260903051324 60 116 1.0 4.0 0.00 0.00 0.00 78 1024.4
20260903051121 60 143 1.0 4.0 0.00 0.00 0.00 78 1024.4
20260903050912 60 125 1.0 4.0 0.00 0.00 0.00 79 1024.4
20260903050705 59 103 1.0 5.0 0.00 0.00 0.00 79 1024.4
20260903050140 59 100 2.0 5.0 0.00 0.00 0.00 80 1024.3
20260903045931 58 103 3.0 5.0 0.00 0.00 0.00 80 1024.4
20260903045730 58 124 3.0 6.0 0.00 0.00 0.00 81 1024.3
20260903045521 58 134 3.0 6.0 0.00 0.00 0.00 81 1024.3
20260903045319 58 118 3.0 6.0 0.00 0.00 0.00 81 1024.3
20260903044429 59 74 3.0 6.0 0.00 0.00 0.00 79 1024.3
20260903044230 59 90 3.0 6.0 0.00 0.00 0.00 79 1024.2
20260903044025 60 114 2.0 6.0 0.00 0.00 0.00 78 1024.3
20260903043817 60 115 2.0 5.0 0.00 0.00 0.00 77 1024.3
20260903043609 60 66 2.0 5.0 0.00 0.00 0.00 77 1024.3
20260903043359 60 106 2.0 5.0 0.00 0.00 0.00 77 1024.3
20260903043150 60 94 2.0 5.0 0.00 0.00 0.00 78 1024.3
20260903042950 60 109 2.0 5.0 0.00 0.00 0.00 78 1024.2
20260903042743 60 115 2.0 5.0 0.00 0.00 0.00 78 1024.4
20260903042539 60 107 2.0 5.0 0.00 0.00 0.00 78 1024.4
20260903042340 60 107 2.0 5.0 0.00 0.00 0.00 78 1024.2
20260903041455 60 109 3.0 5.0 0.00 0.00 0.00 78 1024.3
20260903041247 60 103 3.0 5.0 0.00 0.00 0.00 78 1024.3
20260903041037 60 120 3.0 5.0 0.00 0.00 0.00 78 1024.3
20260903040515 60 117 2.0 5.0 0.00 0.00 0.00 77 1024.3
20260903040308 60 110 2.0 4.0 0.00 0.00 0.00 77 1024.3
20260903040059 60 97 1.0 3.0 0.00 0.00 0.00 77 1024.5
20260903035855 61 105 1.0 3.0 0.00 0.00 0.00 76 1024.5
20260903035328 61 115 1.0 3.0 0.00 0.00 0.00 76 1024.5
20260903035123 61 111 1.0 3.0 0.00 0.00 0.00 76 1024.5
20260903034914 61 118 1.0 3.0 0.00 0.00 0.00 76 1024.3
20260903034711 61 96 1.0 3.0 0.00 0.00 0.00 76 1024.4
20260903034139 61 109 1.0 3.0 0.00 0.00 0.00 76 1024.2
20260903033937 61 129 1.0 3.0 0.00 0.00 0.00 77 1024.2
20260903033737 61 84 0.0 3.0 0.00 0.00 0.00 77 1024.3
20260903033528 61 106 0.0 3.0 0.00 0.00 0.00 77 1024.2
20260903033319 60 106 0.0 3.0 0.00 0.00 0.00 77 1024.2
20260903033115 60 105 0.0 1.0 0.00 0.00 0.00 77 1024.2
20260903032913 60 101 0.0 1.0 0.00 0.00 0.00 77 1024.2
20260903032714 61 81 0.0 0.0 0.00 0.00 0.00 77 1024.2
20260903032508 61 83 0.0 2.0 0.00 0.00 0.00 77 1024.2
20260903032306 60 95 0.0 2.0 0.00 0.00 0.00 77 1024.2
20260903031433 61 86 0.0 3.0 0.00 0.00 0.00 77 1024.1
20260903031233 60 100 1.0 3.0 0.00 0.00 0.00 77 1024.1
20260903031030 60 100 1.0 3.0 0.00 0.00 0.00 77 1024.1
20260903030824 60 107 1.0 3.0 0.00 0.00 0.00 77 1024.1
20260903030625 60 103 1.0 3.0 0.00 0.00 0.00 77 1024.2
20260903030425 60 102 1.0 3.0 0.00 0.00 0.00 77 1024.1
20260903030226 60 128 1.0 3.0 0.00 0.00 0.00 77 1024.2
20260903030027 60 94 1.0 3.0 0.00 0.00 0.00 77 1024.2
20260903025817 60 124 1.0 3.0 0.00 0.00 0.00 77 1024.2
20260903025617 60 113 1.0 3.0 0.00 0.00 0.00 77 1024.1
20260903025414 61 110 1.0 3.0 0.00 0.00 0.00 77 1024.1
20260903025209 61 103 0.0 3.0 0.00 0.00 0.00 77 1024.2
20260903025000 61 105 0.0 3.0 0.00 0.00 0.00 77 1024.1
20260903024757 61 105 0.0 3.0 0.00 0.00 0.00 77 1024.1
20260903024558 61 96 0.0 3.0 0.00 0.00 0.00 77 1024.2
20260903024358 61 98 0.0 3.0 0.00 0.00 0.00 77 1024.1
20260903024150 61 106 0.0 3.0 0.00 0.00 0.00 77 1024.1
20260903023942 60 111 0.0 3.0 0.00 0.00 0.00 77 1024.2
20260903023733 60 106 0.0 2.0 0.00 0.00 0.00 78 1024.2
20260903023526 60 116 0.0 2.0 0.00 0.00 0.00 78 1024.2
20260903023325 60 98 0.0 1.0 0.00 0.00 0.00 78 1024.2
20260903023115 60 106 0.0 3.0 0.00 0.00 0.00 78 1024.2
20260903022909 60 223 0.0 3.0 0.00 0.00 0.00 77 1024.2
20260903022702 60 238 0.0 3.0 0.00 0.00 0.00 77 1024.2
20260903022452 60 223 0.0 3.0 0.00 0.00 0.00 77 1024.1
20260903022250 60 86 0.0 3.0 0.00 0.00 0.00 77 1024.2
20260903022045 60 120 0.0 3.0 0.00 0.00 0.00 77 1024.2
20260903021845 60 105 0.0 3.0 0.00 0.00 0.00 77 1024.2
20260903021321 61 81 0.0 1.0 0.00 0.00 0.00 76 1024.2
20260903021121 61 141 0.0 0.0 0.00 0.00 0.00 76 1024.2
20260903020556 61 141 0.0 0.0 0.00 0.00 0.00 76 1024.1
20260903020345 61 141 0.0 2.0 0.00 0.00 0.00 76 1024.1
20260903015829 61 128 0.0 2.0 0.00 0.00 0.00 76 1024.1
20260903015619 61 131 0.0 2.0 0.00 0.00 0.00 76 1024.1
20260903015410 61 131 0.0 2.0 0.00 0.00 0.00 77 1024.1
20260903015207 61 105 0.0 0.0 0.00 0.00 0.00 76 1024.1
20260903015001 61 225 0.0 0.0 0.00 0.00 0.00 76 1024.1
20260903014752 61 225 0.0 0.0 0.00 0.00 0.00 76 1024.2
20260903014222 61 225 0.0 0.0 0.00 0.00 0.00 76 1024.2
20260903013657 61 225 0.0 0.0 0.00 0.00 0.00 76 1024.1
20260903013457 61 225 0.0 0.0 0.00 0.00 0.00 76 1024.1
20260903013258 61 225 0.0 0.0 0.00 0.00 0.00 76 1024.1
20260903012406 61 225 0.0 0.0 0.00 0.00 0.00 75 1024.1
20260903012156 61 224 0.0 0.0 0.00 0.00 0.00 75 1024.2
20260903011632 62 224 0.0 0.0 0.00 0.00 0.00 75 1024.2
20260903011429 62 224 0.0 0.0 0.00 0.00 0.00 75 1024.1
20260903011220 62 224 0.0 0.0 0.00 0.00 0.00 75 1024.1
20260903011015 62 224 0.0 1.0 0.00 0.00 0.00 75 1024.2
20260903010807 62 230 0.0 0.0 0.00 0.00 0.00 75 1024.2
20260903010559 62 230 0.0 0.0 0.00 0.00 0.00 75 1024.2
20260903010353 62 230 0.0 0.0 0.00 0.00 0.00 75 1024.2
20260903010150 62 230 0.0 0.0 0.00 0.00 0.00 75 1024.1
20260903005947 62 230 0.0 0.0 0.00 0.00 0.00 75 1024.1
20260903005744 62 231 0.0 0.0 0.00 0.00 0.00 75 1024.1
20260903005536 62 233 0.0 0.0 0.00 0.00 0.00 75 1024.2
20260903005329 62 231 0.0 0.0 0.00 0.00 0.00 75 1024.1
20260903005124 62 230 0.0 0.0 0.00 0.00 0.00 75 1024.1
20260903004602 62 226 0.0 0.0 0.00 0.00 0.00 75 1024.2
20260903004359 62 233 0.0 2.0 0.00 0.00 0.00 75 1024.1
20260903003517 62 231 0.0 1.0 0.00 0.00 0.00 75 1024.1
20260903003310 62 221 0.0 1.0 0.00 0.00 0.00 75 1024.1
20260903003109 62 238 0.0 1.0 0.00 0.00 0.00 75 1024.1
20260903002901 62 233 0.0 1.0 0.00 0.00 0.00 75 1024.1
20260903002701 62 220 0.0 1.0 0.00 0.00 0.00 75 1024.1
20260903002456 62 215 0.0 0.0 0.00 0.00 0.00 75 1024.2
20260903002247 62 235 0.0 0.0 0.00 0.00 0.00 75 1024.1
20260903002043 62 238 0.0 2.0 0.00 0.00 0.00 75 1024.2
20260903001515 62 236 0.0 2.0 0.00 0.00 0.00 75 1024.1
20260903000955 62 236 0.0 2.0 0.00 0.00 0.00 75 1024.0
20260903000756 62 243 0.0 2.0 0.00 0.00 0.00 75 1024.0
20260903000551 62 232 0.0 2.0 0.00 0.00 0.00 75 1024.0
20260903000342 62 231 0.0 3.0 0.00 0.00 0.00 74 1024.1
20260902235818 62 229 0.0 3.0 0.00 0.00 0.00 74 1024.1
20260902235613 62 244 0.0 3.0 0.00 0.00 0.00 74 1024.2
20260902235411 62 249 0.0 3.0 0.00 0.00 0.00 74 1024.1
20260902235212 62 245 0.0 3.0 0.00 0.00 0.00 74 1024.1
20260902235011 62 250 0.0 3.0 0.00 0.00 0.00 74 1024.1
20260902234811 62 260 0.0 3.0 0.00 0.00 0.00 74 1024.1
20260902234248 63 235 0.0 2.0 0.00 0.00 0.00 74 1024.1
20260902234039 63 243 0.0 2.0 0.00 0.00 0.00 73 1024.1
20260902233828 63 243 0.0 2.0 0.00 0.00 0.00 73 1024.1
20260902233622 63 242 0.0 2.0 0.00 0.00 0.00 73 1024.1
20260902233417 63 243 0.0 2.0 0.00 0.00 0.00 73 1024.1
20260902233216 63 215 0.0 2.0 0.00 0.00 0.00 73 1024.1
20260902233015 63 245 0.0 2.0 0.00 0.00 0.00 73 1024.2
20260902232813 63 249 0.0 2.0 0.00 0.00 0.00 72 1024.2
20260902232604 63 240 0.0 2.0 0.00 0.00 0.00 72 1024.2
20260902232034 63 240 0.0 0.0 0.00 0.00 0.00 72 1024.3
20260902231830 64 238 0.0 0.0 0.00 0.00 0.00 72 1024.2
20260902231625 64 238 0.0 0.0 0.00 0.00 0.00 72 1024.2
20260902231419 64 238 0.0 0.0 0.00 0.00 0.00 71 1024.2
20260902230856 64 238 0.0 1.0 0.00 0.00 0.00 71 1024.2
20260902230655 64 231 0.0 1.0 0.00 0.00 0.00 70 1024.3
20260902230447 65 231 0.0 1.0 0.00 0.00 0.00 70 1024.2
20260902230244 65 231 0.0 1.0 0.00 0.00 0.00 70 1024.2
20260902230043 65 232 0.0 2.0 0.00 0.00 0.00 70 1024.2
20260902225839 65 232 0.0 2.0 0.00 0.00 0.00 70 1024.3
20260902225638 65 238 0.0 2.0 0.00 0.00 0.00 70 1024.3
20260902225427 65 224 0.0 2.0 0.00 0.00 0.00 70 1024.4
20260902225219 65 228 0.0 2.0 0.00 0.00 0.00 70 1024.3
20260902225013 65 217 0.0 1.0 0.00 0.00 0.00 70 1024.3
20260902224804 65 217 0.0 1.0 0.00 0.00 0.00 70 1024.4
20260902224233 64 241 0.0 1.0 0.00 0.00 0.00 71 1024.3
20260902224026 64 226 0.0 0.0 0.00 0.00 0.00 71 1024.3
20260902223500 65 170 0.0 0.0 0.00 0.00 0.00 71 1024.3
20260902223251 65 170 0.0 0.0 0.00 0.00 0.00 71 1024.2
20260902223047 65 170 0.0 0.0 0.00 0.00 0.00 71 1024.3
20260902222839 65 89 0.0 2.0 0.00 0.00 0.00 71 1024.3
20260902222319 65 198 0.0 0.0 0.00 0.00 0.00 71 1024.3
20260902222118 65 143 0.0 0.0 0.00 0.00 0.00 71 1024.3
20260902221914 65 140 0.0 0.0 0.00 0.00 0.00 71 1024.2
20260902221707 65 136 0.0 0.0 0.00 0.00 0.00 71 1024.3
20260902221507 65 135 0.0 0.0 0.00 0.00 0.00 71 1024.2
20260902221306 65 107 0.0 0.0 0.00 0.00 0.00 71 1024.2
20260902220737 65 92 0.0 1.0 0.00 0.00 0.00 71 1024.3
20260902220532 65 214 0.0 0.0 0.00 0.00 0.00 71 1024.4
20260902220327 65 226 0.0 1.0 0.00 0.00 0.00 71 1024.3
20260902220126 65 231 0.0 1.0 0.00 0.00 0.00 71 1024.3
20260902215927 65 132 0.0 0.0 0.00 0.00 0.00 71 1024.3
20260902215720 65 110 0.0 0.0 0.00 0.00 0.00 70 1024.2
20260902215510 66 110 0.0 0.0 0.00 0.00 0.00 70 1024.2
20260902215306 66 110 0.0 0.0 0.00 0.00 0.00 70 1024.2
20260902215059 66 110 0.0 2.0 0.00 0.00 0.00 70 1024.3
20260902214528 66 108 1.0 2.0 0.00 0.00 0.00 70 1024.3
20260902214323 66 116 1.0 2.0 0.00 0.00 0.00 70 1024.3
20260902214120 66 115 1.0 2.0 0.00 0.00 0.00 70 1024.3
20260902213922 66 115 0.0 2.0 0.00 0.00 0.00 69 1024.3
20260902213720 66 119 0.0 2.0 0.00 0.00 0.00 69 1024.3
20260902213519 66 113 0.0 2.0 0.00 0.00 0.00 69 1024.3
20260902213003 66 106 0.0 0.0 0.00 0.00 0.00 69 1024.3
20260902212759 66 106 0.0 1.0 0.00 0.00 0.00 69 1024.3
20260902212557 66 113 0.0 1.0 0.00 0.00 0.00 69 1024.2
20260902212033 66 112 0.0 0.0 0.00 0.00 0.00 69 1024.3
20260902211823 66 112 0.0 0.0 0.00 0.00 0.00 69 1024.3
20260902211615 66 113 0.0 0.0 0.00 0.00 0.00 69 1024.3
20260902211411 66 112 0.0 0.0 0.00 0.00 0.00 68 1024.3
20260902211203 66 112 0.0 0.0 0.00 0.00 0.00 68 1024.3
20260902211000 66 113 0.0 0.0 0.00 0.00 0.00 68 1024.3
20260902210758 66 112 0.0 0.0 0.00 0.00 0.00 68 1024.3
20260902210553 66 112 0.0 0.0 0.00 0.00 0.00 68 1024.3
20260902210345 66 112 0.0 0.0 0.00 0.00 0.00 69 1024.2
20260902210146 66 112 0.0 0.0 0.00 0.00 0.00 69 1024.2
20260902205940 66 112 0.0 0.0 0.00 0.00 0.00 69 1024.1
20260902205415 66 112 0.0 0.0 0.00 0.00 0.00 69 1024.2
20260902205209 66 112 0.0 0.0 0.00 0.00 0.00 69 1024.2
20260902205007 66 112 0.0 0.0 0.00 0.00 0.00 69 1024.2
20260902204437 66 112 0.0 0.0 0.00 0.00 0.00 69 1024.2
20260902204227 66 112 0.0 2.0 0.00 0.00 0.00 69 1024.2
20260902204028 66 112 0.0 3.0 0.00 0.00 0.00 69 1024.2
20260902203819 66 112 0.0 3.0 0.00 0.00 0.00 69 1024.2
20260902203617 66 101 0.0 3.0 0.00 0.00 0.00 70 1024.2
20260902202735 66 105 1.0 3.0 0.00 0.00 0.00 70 1024.1
20260902202528 66 120 1.0 3.0 0.00 0.00 0.00 70 1024.1
20260902202320 66 113 1.0 3.0 0.00 0.00 0.00 70 1024.1
20260902202119 66 117 0.0 3.0 0.00 0.00 0.00 70 1024.1
20260902201919 66 125 0.0 2.0 0.00 0.00 0.00 70 1024.1
20260902201355 66 105 0.0 1.0 0.00 0.00 0.00 69 1024.1
20260902201145 66 276 0.0 0.0 0.00 0.00 0.00 69 1024.2
20260902200935 66 276 0.0 0.0 0.00 0.00 0.00 69 1024.2
20260902200729 66 277 0.0 0.0 0.00 0.00 0.00 69 1024.1
20260902200527 66 277 0.0 0.0 0.00 0.00 0.00 69 1024.2
20260902200327 66 276 0.0 0.0 0.00 0.00 0.00 69 1024.2
20260902200123 66 276 0.0 0.0 0.00 0.00 0.00 68 1024.1
20260902195917 66 276 0.0 0.0 0.00 0.00 0.00 68 1024.1
20260902195713 66 276 0.0 0.0 0.00 0.00 0.00 68 1024.1
20260902195503 66 276 0.0 0.0 0.00 0.00 0.00 68 1024.1
20260902195259 66 276 0.0 0.0 0.00 0.00 0.00 68 1024.1
20260902194741 66 276 0.0 0.0 0.00 0.00 0.00 68 1024.0
20260902194540 66 276 0.0 0.0 0.00 0.00 0.00 68 1024.1
20260902194331 66 276 0.0 0.0 0.00 0.00 0.00 68 1023.9
20260902194128 66 277 0.0 0.0 0.00 0.00 0.00 68 1024.0
20260902193918 66 276 0.0 0.0 0.00 0.00 0.00 68 1024.0
20260902193357 66 276 0.0 0.0 0.00 0.00 0.00 69 1023.9
20260902193158 66 276 0.0 0.0 0.00 0.00 0.00 69 1023.8
20260902192951 66 276 0.0 0.0 0.00 0.00 0.00 69 1023.8
20260902192427 66 276 0.0 0.0 0.00 0.00 0.00 69 1023.8
20260902192217 66 276 0.0 0.0 0.00 0.00 0.00 69 1023.7
20260902192017 66 277 0.0 0.0 0.00 0.00 0.00 68 1023.7
20260902191810 66 276 0.0 0.0 0.00 0.00 0.00 68 1023.7
20260902191601 66 277 0.0 0.0 0.00 0.00 0.00 68 1023.7
20260902191354 66 276 0.0 0.0 0.00 0.00 0.00 68 1023.7
20260902191151 66 276 0.0 0.0 0.00 0.00 0.00 68 1023.7
20260902190945 66 277 0.0 0.0 0.00 0.00 0.00 68 1023.6
20260902190742 66 276 0.0 0.0 0.00 0.00 0.00 68 1023.7
20260902190537 66 276 0.0 0.0 0.00 0.00 0.00 68 1023.6
20260902190327 66 276 0.0 0.0 0.00 0.00 0.00 68 1023.6
20260902185801 66 276 0.0 0.0 0.00 0.00 0.00 69 1023.4
20260902185559 67 276 0.0 0.0 0.00 0.00 0.00 68 1023.4
20260902185355 67 276 0.0 0.0 0.00 0.00 0.00 68 1023.4
20260902185153 67 277 0.0 0.0 0.00 0.00 0.00 69 1023.4
20260902184954 67 276 0.0 0.0 0.00 0.00 0.00 69 1023.4
20260902184750 67 276 0.0 0.0 0.00 0.00 0.00 68 1023.3
20260902184551 67 276 0.0 0.0 0.00 0.00 0.00 68 1023.3
20260902184349 67 277 0.0 0.0 0.00 0.00 0.00 68 1023.3
20260902184144 67 277 0.0 0.0 0.00 0.00 0.00 68 1023.3
20260902183943 67 276 0.0 0.0 0.00 0.00 0.00 68 1023.2
20260902183742 67 276 0.0 0.0 0.00 0.00 0.00 68 1023.2
20260902183535 67 276 0.0 0.0 0.00 0.00 0.00 68 1023.0
20260902183012 67 276 0.0 0.0 0.00 0.00 0.00 68 1023.0
20260902182805 68 276 0.0 4.0 0.00 0.00 0.00 68 1023.0
20260902182604 68 276 0.0 4.0 0.00 0.00 0.00 68 1023.0
20260902182036 68 298 0.0 4.0 0.00 0.00 0.00 67 1023.0
20260902181833 68 299 0.0 4.0 0.00 0.00 0.00 67 1023.0
20260902181633 68 290 0.0 4.0 0.00 0.00 0.00 67 1023.0
20260902181426 69 293 0.0 4.0 0.00 0.00 0.00 66 1022.9
20260902181218 69 281 0.0 4.0 0.00 0.00 0.00 66 1022.9
20260902181016 69 280 0.0 1.0 0.00 0.00 0.00 65 1022.9
20260902180807 69 240 0.0 0.0 0.00 0.00 0.00 65 1022.8
20260902180605 69 240 0.0 0.0 0.00 0.00 0.00 65 1022.9
20260902180403 69 240 0.0 1.0 0.00 0.00 0.00 65 1022.8
20260902180157 69 242 0.0 1.0 0.00 0.00 0.00 65 1022.8
20260902175636 69 242 0.0 0.0 0.00 0.00 0.00 65 1022.8
20260902175434 69 242 0.0 0.0 0.00 0.00 0.00 65 1022.8
20260902174908 70 238 0.0 0.0 0.00 0.00 0.00 65 1022.7
20260902174335 70 231 0.0 0.0 0.00 0.00 0.00 64 1022.6
20260902173813 70 231 0.0 0.0 0.00 0.00 0.00 64 1022.7
20260902173614 70 231 0.0 0.0 0.00 0.00 0.00 64 1022.7
20260902173409 70 231 0.0 0.0 0.00 0.00 0.00 64 1022.6
20260902173201 70 231 0.0 0.0 0.00 0.00 0.00 63 1022.7
20260902173002 70 231 0.0 0.0 0.00 0.00 0.00 63 1022.6
20260902172757 71 231 0.0 0.0 0.00 0.00 0.00 63 1022.6
20260902172549 71 231 0.0 0.0 0.00 0.00 0.00 63 1022.6
20260902172340 71 231 0.0 1.0 0.00 0.00 0.00 63 1022.7
20260902172132 71 231 0.0 1.0 0.00 0.00 0.00 64 1022.7
20260902171922 71 231 0.0 1.0 0.00 0.00 0.00 64 1022.8
20260902171403 71 231 0.0 0.0 0.00 0.00 0.00 62 1022.6
20260902171159 71 231 0.0 0.0 0.00 0.00 0.00 63 1022.7
20260902170959 71 231 0.0 0.0 0.00 0.00 0.00 62 1022.7
20260902170752 71 231 0.0 0.0 0.00 0.00 0.00 63 1022.7
20260902165917 71 231 0.0 2.0 0.00 0.00 0.00 61 1022.7
20260902165717 71 231 0.0 2.0 0.00 0.00 0.00 61 1022.6
20260902165514 71 231 0.0 2.0 0.00 0.00 0.00 61 1022.6
20260902165309 72 231 0.0 2.0 0.00 0.00 0.00 61 1022.6
20260902165100 72 231 0.0 2.0 0.00 0.00 0.00 62 1022.6
20260902164854 72 239 0.0 2.0 0.00 0.00 0.00 62 1022.7
20260902164654 72 238 0.0 2.0 0.00 0.00 0.00 61 1022.6
20260902164446 72 238 0.0 2.0 0.00 0.00 0.00 62 1022.6
20260902164239 72 235 0.0 2.0 0.00 0.00 0.00 61 1022.6
20260902164034 73 250 0.0 1.0 0.00 0.00 0.00 61 1022.6
20260902163825 73 237 0.0 1.0 0.00 0.00 0.00 60 1022.7
20260902163623 73 259 0.0 1.0 0.00 0.00 0.00 61 1022.6
20260902163418 73 261 0.0 0.0 0.00 0.00 0.00 60 1022.6
20260902163218 73 262 0.0 0.0 0.00 0.00 0.00 59 1022.6
20260902163012 74 262 0.0 5.0 0.00 0.00 0.00 59 1022.6
20260902162807 74 282 0.0 5.0 0.00 0.00 0.00 59 1022.7
20260902162557 74 276 0.0 5.0 0.00 0.00 0.00 58 1022.6
20260902162034 74 297 1.0 5.0 0.00 0.00 0.00 57 1022.6
20260902161831 74 296 1.0 5.0 0.00 0.00 0.00 56 1022.6
20260902161308 74 321 0.0 4.0 0.00 0.00 0.00 58 1022.6
20260902161105 74 285 0.0 4.0 0.00 0.00 0.00 57 1022.7
20260902160900 74 291 1.0 4.0 0.00 0.00 0.00 57 1022.7
20260902160700 74 276 1.0 4.0 0.00 0.00 0.00 56 1022.7
20260902160135 74 302 1.0 7.0 0.00 0.00 0.00 58 1022.6
20260902155933 74 288 1.0 7.0 0.00 0.00 0.00 58 1022.7
20260902155410 74 271 1.0 7.0 0.00 0.00 0.00 58 1022.6
20260902155204 74 264 1.0 7.0 0.00 0.00 0.00 57 1022.5
20260902154958 74 248 1.0 7.0 0.00 0.00 0.00 58 1022.5
20260902154750 74 292 0.0 7.0 0.00 0.00 0.00 57 1022.5
20260902154540 74 248 0.0 7.0 0.00 0.00 0.00 59 1022.4
20260902154337 74 228 0.0 6.0 0.00 0.00 0.00 57 1022.5
20260902154133 74 311 0.0 6.0 0.00 0.00 0.00 59 1022.5
20260902153929 74 264 0.0 6.0 0.00 0.00 0.00 60 1022.5
20260902153727 74 302 1.0 6.0 0.00 0.00 0.00 59 1022.5
20260902153159 73 260 1.0 6.0 0.00 0.00 0.00 59 1022.5
20260902152954 73 267 1.0 6.0 0.00 0.00 0.00 59 1022.5
20260902152746 73 309 1.0 6.0 0.00 0.00 0.00 58 1022.5
20260902152544 73 259 1.0 6.0 0.00 0.00 0.00 58 1022.5
20260902152343 73 289 1.0 6.0 0.00 0.00 0.00 59 1022.5
20260902152140 73 278 1.0 6.0 0.00 0.00 0.00 57 1022.5
20260902151940 73 250 1.0 6.0 0.00 0.00 0.00 57 1022.6
20260902151738 73 295 1.0 6.0 0.00 0.00 0.00 56 1022.5
20260902151531 74 285 1.0 6.0 0.00 0.00 0.00 57 1022.5
20260902151326 74 270 1.0 4.0 0.00 0.00 0.00 59 1022.6
20260902151124 74 259 1.0 4.0 0.00 0.00 0.00 57 1022.5
20260902150923 74 292 1.0 8.0 0.00 0.00 0.00 57 1022.6
20260902150724 74 295 1.0 8.0 0.00 0.00 0.00 56 1022.6
20260902150515 74 297 1.0 8.0 0.00 0.00 0.00 55 1022.5
20260902150309 74 281 1.0 8.0 0.00 0.00 0.00 57 1022.5
20260902150103 74 295 2.0 8.0 0.00 0.00 0.00 57 1022.4
20260902145901 74 261 2.0 8.0 0.00 0.00 0.00 57 1022.5
20260902145659 74 248 3.0 8.0 0.00 0.00 0.00 54 1022.5
20260902145448 74 245 2.0 8.0 0.00 0.00 0.00 55 1022.5
20260902145245 75 260 2.0 8.0 0.00 0.00 0.00 54 1022.5
20260902145044 75 240 2.0 8.0 0.00 0.00 0.00 53 1022.5
20260902144844 75 254 2.0 7.0 0.00 0.00 0.00 55 1022.6
20260902144637 75 243 2.0 7.0 0.00 0.00 0.00 54 1022.5
20260902144437 75 243 2.0 7.0 0.00 0.00 0.00 55 1022.5
20260902144231 75 259 2.0 7.0 0.00 0.00 0.00 54 1022.6
20260902144024 75 233 2.0 7.0 0.00 0.00 0.00 54 1022.4
20260902143819 75 257 2.0 7.0 0.00 0.00 0.00 56 1022.6
20260902143613 75 239 2.0 6.0 0.00 0.00 0.00 57 1022.5
20260902143406 75 288 1.0 6.0 0.00 0.00 0.00 55 1022.5
20260902143203 75 293 1.0 6.0 0.00 0.00 0.00 53 1022.4
20260902143001 75 280 1.0 6.0 0.00 0.00 0.00 56 1022.5
20260902142756 75 278 1.0 6.0 0.00 0.00 0.00 53 1022.5
20260902142547 75 312 1.0 6.0 0.00 0.00 0.00 55 1022.5
20260902142017 74 288 2.0 6.0 0.00 0.00 0.00 56 1022.5
20260902141817 74 281 1.0 6.0 0.00 0.00 0.00 56 1022.4
20260902141616 74 299 1.0 5.0 0.00 0.00 0.00 58 1022.5
20260902141416 74 226 1.0 5.0 0.00 0.00 0.00 56 1022.5
20260902141207 74 295 1.0 5.0 0.00 0.00 0.00 56 1022.5
20260902140957 74 309 1.0 5.0 0.00 0.00 0.00 57 1022.5
20260902140755 74 247 1.0 5.0 0.00 0.00 0.00 57 1022.5
20260902140545 74 246 1.0 5.0 0.00 0.00 0.00 61 1022.6
20260902140340 74 309 1.0 4.0 0.00 0.00 0.00 58 1022.6
20260902140133 74 296 1.0 4.0 0.00 0.00 0.00 59 1022.6
20260902135923 74 276 1.0 6.0 0.00 0.00 0.00 58 1022.6
20260902135717 74 231 1.0 6.0 0.00 0.00 0.00 60 1022.7
20260902135516 74 239 1.0 6.0 0.00 0.00 0.00 59 1022.6
20260902135316 74 283 1.0 6.0 0.00 0.00 0.00 58 1022.7
20260902135106 74 232 1.0 6.0 0.00 0.00 0.00 59 1022.7
20260902134903 74 294 2.0 6.0 0.00 0.00 0.00 58 1022.7
20260902134657 74 304 2.0 6.0 0.00 0.00 0.00 58 1022.6
20260902134455 74 283 2.0 6.0 0.00 0.00 0.00 57 1022.6
20260902134256 74 303 2.0 6.0 0.00 0.00 0.00 59 1022.7
20260902133421 74 246 0.0 4.0 0.00 0.00 0.00 56 1022.6
20260902133213 74 306 0.0 4.0 0.00 0.00 0.00 57 1022.6
20260902133009 74 289 0.0 4.0 0.00 0.00 0.00 57 1022.6
20260902132809 74 286 1.0 4.0 0.00 0.00 0.00 58 1022.6
20260902132610 74 271 1.0 4.0 0.00 0.00 0.00 57 1022.7
20260902132405 74 283 1.0 4.0 0.00 0.00 0.00 57 1022.6
20260902131841 74 221 1.0 4.0 0.00 0.00 0.00 63 1022.7
20260902131637 74 252 0.0 4.0 0.00 0.00 0.00 62 1022.7
20260902131427 74 259 0.0 4.0 0.00 0.00 0.00 59 1022.8
20260902131222 74 291 1.0 4.0 0.00 0.00 0.00 58 1022.8
20260902131015 74 287 1.0 4.0 0.00 0.00 0.00 60 1022.9
20260902130809 74 288 0.0 4.0 0.00 0.00 0.00 61 1022.8
20260902130610 74 287 0.0 4.0 0.00 0.00 0.00 58 1022.8
20260902130400 74 282 0.0 4.0 0.00 0.00 0.00 57 1022.8
20260902130159 74 276 0.0 2.0 0.00 0.00 0.00 58 1022.8
20260902125951 74 250 0.0 2.0 0.00 0.00 0.00 60 1022.8
20260902125752 74 278 0.0 2.0 0.00 0.00 0.00 59 1022.9
20260902125545 74 301 0.0 2.0 0.00 0.00 0.00 59 1023.0
20260902125342 73 221 1.0 0.0 0.00 0.00 0.00 60 1022.9
20260902124811 73 316 2.0 5.0 0.00 0.00 0.00 60 1022.9
20260902124609 73 297 2.0 5.0 0.00 0.00 0.00 58 1022.9
20260902124400 73 285 2.0 5.0 0.00 0.00 0.00 58 1022.8
20260902123835 73 299 1.0 5.0 0.00 0.00 0.00 57 1022.9
20260902123628 73 300 0.0 3.0 0.00 0.00 0.00 57 1022.8
20260902123420 74 298 0.0 3.0 0.00 0.00 0.00 57 1022.9
20260902122856 74 257 0.0 1.0 0.00 0.00 0.00 58 1022.9
20260902122332 74 288 0.0 1.0 0.00 0.00 0.00 54 1023.0
20260902122132 74 295 0.0 1.0 0.00 0.00 0.00 54 1023.0
20260902121933 74 45 0.0 1.0 0.00 0.00 0.00 57 1023.0
20260902121723 74 266 0.0 1.0 0.00 0.00 0.00 57 1023.0
20260902121520 74 276 0.0 1.0 0.00 0.00 0.00 57 1023.0
20260902121313 74 246 0.0 3.0 0.00 0.00 0.00 57 1023.0
20260902121107 74 254 0.0 1.0 0.00 0.00 0.00 59 1023.0
20260902120858 74 49 0.0 1.0 0.00 0.00 0.00 53 1023.0
20260902120655 74 53 0.0 1.0 0.00 0.00 0.00 55 1023.1
20260902120140 74 282 0.0 1.0 0.00 0.00 0.00 57 1023.2
20260902115929 74 261 0.0 0.0 0.00 0.00 0.00 58 1023.1
20260902115720 73 243 0.0 6.0 0.00 0.00 0.00 61 1023.1
20260902115151 73 283 0.0 3.0 0.00 0.00 0.00 54 1023.2
20260902114949 73 249 0.0 3.0 0.00 0.00 0.00 59 1023.2
20260902114739 73 316 0.0 3.0 0.00 0.00 0.00 54 1023.2
20260902114535 74 288 0.0 3.0 0.00 0.00 0.00 55 1023.2
20260902114332 73 283 0.0 0.0 0.00 0.00 0.00 56 1023.2
20260902114124 73 261 0.0 6.0 0.00 0.00 0.00 56 1023.2
20260902113922 73 254 1.0 6.0 0.00 0.00 0.00 58 1023.2
20260902113402 73 296 0.0 4.0 0.00 0.00 0.00 58 1023.2
20260902113203 73 331 0.0 3.0 0.00 0.00 0.00 54 1023.2
20260902112956 73 220 0.0 3.0 0.00 0.00 0.00 55 1023.3
20260902112431 72 287 0.0 5.0 0.00 0.00 0.00 55 1023.3
20260902111909 72 296 1.0 5.0 0.00 0.00 0.00 53 1023.2
20260902111702 72 242 1.0 5.0 0.00 0.00 0.00 54 1023.2
20260902111456 72 300 1.0 5.0 0.00 0.00 0.00 52 1023.2
20260902111249 72 238 1.0 5.0 0.00 0.00 0.00 55 1023.3
20260902111045 72 286 0.0 5.0 0.00 0.00 0.00 54 1023.3
20260902110836 73 270 0.0 5.0 0.00 0.00 0.00 54 1023.2
20260902110317 73 224 0.0 0.0 0.00 0.00 0.00 58 1023.3
20260902110107 73 266 0.0 1.0 0.00 0.00 0.00 58 1023.3
20260902105858 72 289 0.0 1.0 0.00 0.00 0.00 59 1023.2
20260902105648 72 224 0.0 1.0 0.00 0.00 0.00 58 1023.3
20260902105444 72 310 0.0 1.0 0.00 0.00 0.00 59 1023.3
20260902104908 71 249 0.0 5.0 0.00 0.00 0.00 58 1023.3
20260902104707 71 251 0.0 5.0 0.00 0.00 0.00 58 1023.3
20260902104500 71 304 0.0 5.0 0.00 0.00 0.00 56 1023.3
20260902104256 71 303 0.0 5.0 0.00 0.00 0.00 58 1023.4
20260902104052 71 278 1.0 5.0 0.00 0.00 0.00 55 1023.4
20260902103853 70 273 1.0 5.0 0.00 0.00 0.00 57 1023.4
20260902103654 70 263 1.0 5.0 0.00 0.00 0.00 59 1023.5
20260902103454 70 284 1.0 5.0 0.00 0.00 0.00 56 1023.5
20260902102933 71 274 0.0 4.0 0.00 0.00 0.00 56 1023.5
20260902102727 71 302 0.0 2.0 0.00 0.00 0.00 58 1023.5
20260902102528 71 281 0.0 1.0 0.00 0.00 0.00 58 1023.7
20260902102329 71 285 0.0 1.0 0.00 0.00 0.00 58 1023.7
20260902102122 71 306 0.0 1.0 0.00 0.00 0.00 59 1023.6
20260902101923 71 49 0.0 1.0 0.00 0.00 0.00 62 1023.6
20260902101357 71 288 0.0 1.0 0.00 0.00 0.00 61 1023.7
20260902101153 70 89 0.0 0.0 0.00 0.00 0.00 58 1023.7
20260902100626 71 278 0.0 2.0 0.00 0.00 0.00 59 1023.7
20260902100425 71 276 0.0 2.0 0.00 0.00 0.00 61 1023.7
20260902100222 71 290 0.0 0.0 0.00 0.00 0.00 62 1023.7
20260902095654 70 302 0.0 3.0 0.00 0.00 0.00 59 1023.7
20260902095446 70 281 0.0 3.0 0.00 0.00 0.00 63 1023.7
20260902095239 70 237 0.0 3.0 0.00 0.00 0.00 62 1023.6
20260902095040 71 232 0.0 3.0 0.00 0.00 0.00 62 1023.7
20260902094830 70 241 0.0 1.0 0.00 0.00 0.00 63 1023.7
20260902094628 70 224 0.0 3.0 0.00 0.00 0.00 62 1023.7
20260902093740 70 241 0.0 3.0 0.00 0.00 0.00 64 1023.7
20260902093535 69 241 0.0 3.0 0.00 0.00 0.00 65 1023.6
20260902093329 69 253 0.0 3.0 0.00 0.00 0.00 64 1023.7
20260902093124 69 244 0.0 3.0 0.00 0.00 0.00 66 1023.7
20260902092923 69 226 0.0 3.0 0.00 0.00 0.00 64 1023.8
20260902092724 68 240 0.0 3.0 0.00 0.00 0.00 66 1023.7
20260902092517 68 238 0.0 2.0 0.00 0.00 0.00 67 1023.7
20260902092316 68 287 0.0 2.0 0.00 0.00 0.00 62 1023.7
20260902092109 68 236 0.0 2.0 0.00 0.00 0.00 66 1023.8
20260902091907 68 232 0.0 2.0 0.00 0.00 0.00 65 1023.7
20260902091708 68 259 0.0 2.0 0.00 0.00 0.00 67 1023.7
20260902091506 67 297 0.0 1.0 0.00 0.00 0.00 69 1023.7
20260902091305 67 217 0.0 1.0 0.00 0.00 0.00 69 1023.7
20260902091104 67 228 0.0 1.0 0.00 0.00 0.00 71 1023.8
20260902090856 66 292 0.0 0.0 0.00 0.00 0.00 71 1023.7
20260902090330 65 295 0.0 3.0 0.00 0.00 0.00 70 1023.7
20260902090120 65 301 0.0 3.0 0.00 0.00 0.00 69 1023.7
20260902085917 65 284 0.0 3.0 0.00 0.00 0.00 71 1023.7
20260902085344 65 280 0.0 3.0 0.00 0.00 0.00 72 1023.7
20260902085143 65 323 0.0 3.0 0.00 0.00 0.00 72 1023.7
20260902084936 65 298 0.0 3.0 0.00 0.00 0.00 72 1023.7
20260902084728 65 280 0.0 3.0 0.00 0.00 0.00 74 1023.7
20260902084519 65 300 0.0 3.0 0.00 0.00 0.00 73 1023.7
20260902084310 65 280 0.0 3.0 0.00 0.00 0.00 74 1023.7
20260902084103 65 279 0.0 3.0 0.00 0.00 0.00 73 1023.6
20260902083902 65 276 0.0 3.0 0.00 0.00 0.00 74 1023.5
20260902083657 65 284 0.0 3.0 0.00 0.00 0.00 76 1023.4
20260902083457 65 255 0.0 2.0 0.00 0.00 0.00 76 1023.4
20260902083249 65 273 0.0 2.0 0.00 0.00 0.00 76 1023.5
20260902083044 65 266 0.0 2.0 0.00 0.00 0.00 77 1023.4
20260902082519 64 264 0.0 0.0 0.00 0.00 0.00 77 1023.2
20260902082320 64 323 0.0 0.0 0.00 0.00 0.00 77 1023.2